Ketchikan, AK

4:14 PM AKDT on May 25, 2018 (GMT -0800)
Ketchikan International

Weather History for PAKT - April, 2018

Change the Weather History Date:

Sunday, April 15, 2018

  Actual Average Record
Temperature  
Mean Temperature 44 °F -  
Max Temperature 54 °F 50 °F 65 °F (1965)
Min Temperature 35 °F 35 °F 28 °F (1972)
Degree Days  
Heating Degree Days 21    
Moisture  
Dew Point 37 °F    
Average Humidity 82    
Maximum Humidity 100    
Minimum Humidity 51    
Precipitation  
Precipitation 0.00 in - - ()
Sea Level Pressure  
Sea Level Pressure 30.03 in    
Wind  
Wind Speed 6 mph (NW)    
Max Wind Speed 14 mph    
Max Gust Speed -    
Visibility 8 miles    
Events Fog    
Averages and records for this station are not official NWS values.
T = Trace of Precipitation, MM = Missing Value Source: NWS Daily Summary

Daily Weather History Graph

Daily Weather History Graph

Search for Another Location

Airport or City:

Astronomy

Apr. 15, 2018 Rise Set
Actual Time 5:42 AM AKDT 7:52 PM AKDT
Civil Twilight 5:02 AM AKDT 8:32 PM AKDT
Nautical Twilight 4:12 AM AKDT 9:22 PM AKDT
Astronomical Twilight 3:13 AM AKDT 10:23 PM AKDT
Moon 6:12 AM AKDT (4/15) 7:31 PM AKDT (4/15)
Length of Visible Light 15h 29m
Length of Day
14h 10m
Waning Crescent, 0% of the Moon is Illuminated
Apr 15
Waning Crescent
Apr 15
New
Apr 22
First Quarter
Apr 29
Full
May 7
Last Quarter

Hourly Weather History & Observations

Time (AKDT) Temp. Windchill Dew Point Humidity Pressure Visibility Wind Dir Wind Speed Gust Speed Precip Events Conditions
12:53 AM 35.1 °F - 34.0 °F 96% 30.05 in 10.0 mi Calm Calm - N/A   Clear
1:53 AM 35.1 °F - 33.1 °F 92% 30.05 in 10.0 mi Calm Calm - N/A   Clear
2:53 AM 35.1 °F 30.1 °F 34.0 °F 96% 30.06 in 10.0 mi WNW 5.8 mph - N/A   Clear
3:41 AM 36.0 °F 32.1 °F 35.1 °F 97% 30.06 in 10.0 mi NW 4.6 mph - N/A   Scattered Clouds
3:50 AM 35.6 °F 32.8 °F 35.6 °F 100% 30.06 in 10.0 mi NW 3.5 mph - N/A   Mostly Cloudy
3:53 AM 37.0 °F 34.5 °F 36.0 °F 96% 30.06 in 10.0 mi NW 3.5 mph - N/A   Mostly Cloudy
4:26 AM 37.9 °F 31.5 °F 37.0 °F 97% 30.06 in 1.5 mi NNW 9.2 mph - N/A   Overcast
4:35 AM 37.9 °F 31.5 °F 37.0 °F 97% 30.06 in 0.5 mi NNW 9.2 mph - N/A Fog Fog
4:46 AM 37.9 °F 31.5 °F 37.0 °F 97% 30.06 in 1.2 mi NNW 9.2 mph - N/A   Overcast
4:53 AM 37.9 °F 30.9 °F 37.0 °F 97% 30.07 in 2.0 mi NNW 10.4 mph - N/A   Overcast
5:02 AM 37.9 °F 30.9 °F 37.9 °F 100% 30.06 in 5.0 mi NNW 10.4 mph - N/A   Overcast
5:53 AM 37.9 °F 33.5 °F 37.0 °F 97% 30.06 in 10.0 mi NW 5.8 mph - N/A   Overcast
6:00 AM 37.9 °F 32.1 °F 37.0 °F 97% 30.06 in 3.0 mi NNW 8.1 mph - N/A   Mostly Cloudy
6:53 AM 39.0 °F 31.8 °F 37.9 °F 96% 30.06 in 6.0 mi NNW 11.5 mph - N/A   Overcast
7:19 AM 39.0 °F 31.0 °F 37.9 °F 96% 30.06 in 10.0 mi NNW 13.8 mph - N/A   Mostly Cloudy
7:53 AM 39.9 °F 32.9 °F 37.0 °F 89% 30.06 in 10.0 mi NNW 11.5 mph - N/A   Scattered Clouds
8:53 AM 42.1 °F 35.2 °F 37.9 °F 85% 30.06 in 10.0 mi NNW 12.7 mph - N/A   Scattered Clouds
9:53 AM 43.0 °F 37.2 °F 39.0 °F 86% 30.05 in 10.0 mi North 10.4 mph - N/A   Partly Cloudy
10:53 AM 46.0 °F 40.2 °F 39.0 °F 76% 30.04 in 10.0 mi NNW 12.7 mph - N/A   Clear
11:53 AM 48.0 °F - 39.0 °F 71% 30.04 in 10.0 mi NNW 12.7 mph - N/A   Clear
12:53 PM 50.0 °F - 39.0 °F 66% 30.03 in 10.0 mi NNW 12.7 mph - N/A   Clear
1:53 PM 51.8 °F - 39.2 °F 62% 30.01 in 10.0 mi NNW 11.5 mph - N/A   Partly Cloudy
2:53 PM 53.6 °F - 37.4 °F 54% 30.01 in 10.0 mi NW 13.8 mph - N/A   Partly Cloudy
3:53 PM 53.6 °F - 35.6 °F 51% 29.99 in 10.0 mi NW 12.7 mph - N/A   Partly Cloudy
4:53 PM 53.6 °F - 35.6 °F 51% 29.98 in 10.0 mi NW 11.5 mph - N/A   Clear
5:53 PM 53.6 °F - 35.6 °F 51% 29.97 in 10.0 mi WNW 6.9 mph - N/A   Clear
6:53 PM 50.0 °F - 35.6 °F 58% 29.96 in 10.0 mi NW 6.9 mph - N/A   Clear
7:53 PM 46.4 °F 42.9 °F 35.6 °F 66% 29.96 in 10.0 mi NNW 6.9 mph - N/A   Clear
8:53 PM 44.6 °F 42.2 °F 35.6 °F 71% 29.96 in 10.0 mi North 4.6 mph - N/A   Clear
9:53 PM 41.0 °F 39.0 °F 35.1 °F 79% 29.95 in 10.0 mi NW 3.5 mph - N/A   Clear
10:53 PM 39.0 °F 35.7 °F 34.0 °F 82% 29.94 in 10.0 mi West 4.6 mph - N/A   Clear
11:53 PM 39.9 °F 35.1 °F 35.1 °F 83% 29.92 in 10.0 mi WNW 6.9 mph - N/A   Clear